Regional Weather Roundup
Issued by NWS

Home | Current Version | Previous Version | Text Only | Print | Product List | Glossary On
Versions: 1 2 3 4 5 6 7 8 9 10 11 12 13 14 15 16 17 18 19 20 21 22 23 24 25 26 27 28 29 30 31 32 33 34 35 36 37 38 39 40 41 42 43 44 45 46 47 48 49 50
000
ASUS43 KDTX 280901
RWRMI
MICHIGAN HOURLY REGIONAL WEATHER ROUNDUP
NATIONAL WEATHER SERVICE DETROIT/PONTIAC MI
500 AM EDT SUN MAY 28 2017

NOTE: "FAIR" INDICATES FEW OR NO CLOUDS BELOW 12,000 FEET WITH NO
SIGNIFICANT WEATHER AND/OR OBSTRUCTION TO VISIBILITY.

MIZ047>049-052>055-059>063-066>070-074>076-081>083-281000-
SOUTHEAST LOWER MICHIGAN

CITY           SKY/WX    TMP DP  RH WIND       PRES   REMARKS
ADRIAN         MOCLDY    58  55  90 NE5       29.83S
ALMA           CLOUDY    59  58  96 CALM      29.82F
ANN ARBOR      CLOUDY    59  55  87 N5        29.83F
BAD AXE        CLOUDY    53  51  92 CALM      29.84F
CARO           CLOUDY    56  54  93 CALM      29.83F
DETROIT CITY   CLOUDY    58  54  86 E3        29.84F
DETROIT        CLOUDY    61  53  75 NE5       29.83F
FLINT          CLOUDY    58  55  90 S7        29.83F
GROSSE ILE     CLOUDY    57  52  84 E5        29.82F
HILLSDALE      MOCLDY    54  52  94 CALM      29.82F
HOWELL         CLOUDY    59  55  85 SE3       29.83F

CITY           SKY/WX    TMP DP  RH WIND       PRES   REMARKS
JACKSON        CLOUDY    59  56  89 E3        29.82F
LAMBERTVILLE   MOCLDY    58  55  89 CALM      29.81F
LANSING        MOCLDY    61  55  81 E3        29.82F
LAPEER         CLOUDY    54  53  96 NE5       29.86S FOG
MASON          MOCLDY    59  56  91 E6        29.82F
MONROE         CLOUDY    57  54  90 NE5       29.81F
MT. CLEMENS    CLOUDY    57  57 100 NE3       29.83F
PONTIAC        CLOUDY    57  54  89 CALM      29.84F
PORT HOPE        N/A     55  51  86 CALM      29.81F
PORT HURON     CLOUDY    52  50  93 CALM      29.85F
TRI CITIES     CLOUDY    61  58  90 S7        29.82F
MIDLAND        FAIR      58  55  89 CALM      29.81F
TROY           CLOUDY    60  53  78 CALM      29.86F
SAGINAW HB     MOCLDY    59  54  82 S3        29.82F
$$
MIZ043>046-050>051-056>058-064>065-071>073-077>080-281000-
SOUTHWEST LOWER MICHIGAN

CITY           SKY/WX    TMP DP  RH WIND       PRES   REMARKS
BATTLE CREEK   CLOUDY    60  56  86 SE3       29.81F
BENTON HARBOR  PTCLDY    57  54  89 CALM      29.78F
BIG RAPIDS     CLOUDY    56  53  91 SW3       29.79F
COLDWATER      MOCLDY    56  56 100 CALM      29.81F
FREMONT        FAIR      59  53  80 CALM      29.78F
HOLLAND        CLOUDY    60  55  83 SE3       29.80F
GRAND RAPIDS   CLOUDY    60  58  92 SE3       29.80F
IONIA          FAIR      58  57  96 CALM      29.80F
KALAMAZOO      CLOUDY    59  54  83 CALM      29.80F
LUDINGTON      CLOUDY    54  52  95 CALM      29.77S
MARSHALL       CLOUDY    58  57  98 CALM      29.81F
MOUNT PLEASANT CLOUDY    58  56  94 CALM      29.80F
MUSKEGON       CLOUDY    61  52  72 SE5       29.78F
SOUTH HAVEN    CLOUDY    57  56  95 CALM      29.79S
$$
MIZ016>042-281000-
NORTHERN LOWER MICHIGAN

CITY           SKY/WX    TMP DP  RH WIND       PRES   REMARKS
ALPENA         LGT RAIN  57  55  93 SE5       29.81F
BEAVER ISLAND  MOCLDY    60  52  75 S3        29.77F
BELLAIRE       CLOUDY    54  53  94 CALM      29.78F
CADILLAC       CLOUDY    55  53  93 CALM      29.79F
CHARLEVOIX     MOCLDY    55  55  97 CALM      29.80F
FRANKFORT      CLOUDY    58  51  76 CALM      29.77F
GAYLORD        CLOUDY    59  53  80 S5        29.80F
GRAYLING       CLOUDY    53  51  94 CALM      29.81F
HARBOR SPRINGS MOCLDY    55  55  99 CALM      29.78F
HOUGHTON LAKE  CLOUDY    55  53  93 CALM      29.81F
MANISTEE       CLOUDY    54  52  93 CALM      29.77F
OSCODA         CLOUDY    52  49  89 S6        29.81F
PELLSTON       MOCLDY    53  51  93 CALM      29.78F
ROGERS CITY    CLOUDY    60  54  79 SW8       29.80S
TRAVERSE CITY  CLOUDY    58  53  84 CALM      29.77F
$$
MIZ007>008-015-281000-
EASTERN UPPER MICHIGAN

CITY           SKY/WX    TMP DP  RH WIND       PRES   REMARKS
KINROSS        CLOUDY    53  50  89 E8        29.79F
MACKINAC ISLAN CLOUDY    50  50 100 CALM      29.79S
NEWBERRY       CLOUDY    55  52  89 CALM      29.77S
S. S. MARIE    CLOUDY    55  50  83 E3        29.79F
MUNISING         N/A     55  53  93 CALM      29.76F
$$
MIZ004>006-011>014-085-281000-
CENTRAL UPPER MICHIGAN

CITY           SKY/WX    TMP DP  RH WIND       PRES   REMARKS
MANISTIQUE     PTCLDY    47  44  90 CALM      29.77S
ESCANABA       CLOUDY    54  53  97 CALM      29.77S
SAWYER-GWINN   DRIZZLE   55  54  95 NW3       29.77F
$$
MIZ001>003-009>011-084-281000-
WESTERN UPPER MICHIGAN

CITY           SKY/WX    TMP DP  RH WIND       PRES   REMARKS
IRON MOUNTAIN  CLOUDY    56  52  86 CALM      29.76S
HOUGHTON       FOG       50  48  93 CALM      29.72F VSB 1/4
COPPER HARBOR    N/A     57  51  80 SW8       29.71F
IRONWOOD       CLOUDY    59  48  67 VRB6      29.75F
$$

ABBREVIATIONS USED IN REMARKS
   TC - TEMPERATURE IN CELSIUS
  WCI - WIND CHILL INDEX
   HX - HEAT INDEX
  VSB - VISIBILITY





USA.gov is the U.S. government's official web portal to all federal, state and local government web resources and services.